TimeMDT,TemperatureF,Dew PointF,Humidity,Sea Level PressureIn,VisibilityMPH,Wind Direction,Wind SpeedMPH,Gust SpeedMPH,PrecipitationIn,Events,Conditions,WindDirDegrees,DateUTC
12:51 AM,50.0,34.0,54,29.81,10.0,ENE,9.2,-,N/A,,Clear,70,2012-10-03 06:51:00
1:51 AM,50.0,35.1,57,29.83,10.0,NE,10.4,-,N/A,,Clear,40,2012-10-03 07:51:00
2:51 AM,48.0,35.1,61,29.81,10.0,ENE,11.5,-,N/A,,Clear,70,2012-10-03 08:51:00
3:51 AM,46.0,35.1,66,29.81,10.0,East,5.8,-,N/A,,Clear,80,2012-10-03 09:51:00
4:51 AM,45.0,36.0,71,29.84,10.0,NE,13.8,-,N/A,,Overcast,40,2012-10-03 10:51:00
5:51 AM,43.0,35.1,74,29.91,10.0,North,15.0,-,N/A,,Mostly Cloudy,360,2012-10-03 11:51:00
6:35 AM,41.0,33.8,76,29.94,10.0,NNE,12.7,23.0,N/A,,Mostly Cloudy,20,2012-10-03 12:35:00
6:41 AM,41.0,33.8,76,29.95,10.0,North,17.3,21.9,N/A,,Mostly Cloudy,10,2012-10-03 12:41:00
6:51 AM,41.0,33.1,73,29.96,10.0,North,13.8,21.9,N/A,,Mostly Cloudy,10,2012-10-03 12:51:00
7:51 AM,39.9,33.1,77,30.00,10.0,North,13.8,20.7,N/A,,Overcast,360,2012-10-03 13:51:00
7:57 AM,39.2,33.8,81,29.98,10.0,NNE,18.4,-,N/A,,Overcast,20,2012-10-03 13:57:00
8:51 AM,39.0,35.1,86,30.04,10.0,North,10.4,19.6,0.01,Rain,Light Rain,10,2012-10-03 14:51:00
9:35 AM,37.4,33.8,87,30.05,10.0,North,11.5,21.9,0.01,Rain,Light Rain,360,2012-10-03 15:35:00
9:51 AM,37.0,33.1,86,30.08,9.0,NNE,8.1,-,0.02,Rain,Light Rain,30,2012-10-03 15:51:00
9:56 AM,35.6,33.8,93,30.04,6.0,NNE,5.8,-,0.02,Rain,Heavy Rain,30,2012-10-03 15:56:00
10:51 AM,37.0,34.0,89,30.11,10.0,NNW,12.7,-,0.10,Rain,Light Rain,330,2012-10-03 16:51:00
11:17 AM,33.8,30.2,87,30.08,1.8,NNW,13.8,24.2,0.03,Snow,Light Snow,340,2012-10-03 17:17:00
11:24 AM,33.8,30.2,87,30.10,1.2,NW,12.7,-,0.05,Snow,Light Snow,320,2012-10-03 17:24:00
11:37 AM,33.8,30.2,87,30.09,2.0,NNW,12.7,-,0.06,Snow,Light Snow,340,2012-10-03 17:37:00
11:42 AM,33.8,30.2,87,30.10,1.0,NNW,13.8,-,0.07,Snow,Light Snow,330,2012-10-03 17:42:00
11:48 AM,33.8,30.2,87,30.10,0.8,NNW,12.7,24.2,0.08,Snow,Light Snow,330,2012-10-03 17:48:00
11:51 AM,33.1,30.0,89,30.13,0.8,NNW,17.3,25.3,0.09,Snow,Light Snow,330,2012-10-03 17:51:00
12:00 PM,33.8,30.2,87,30.10,1.5,NNW,13.8,23.0,0.00,Snow,Light Snow,340,2012-10-03 18:00:00
12:06 PM,33.8,30.2,87,30.12,3.0,NW,11.5,23.0,0.00,Snow,Light Snow,310,2012-10-03 18:06:00
12:16 PM,33.8,30.2,87,30.12,8.0,NW,13.8,-,0.00,Snow,Light Snow,320,2012-10-03 18:16:00
12:28 PM,33.8,30.2,87,30.12,2.0,NW,13.8,-,0.00,Snow,Light Snow,320,2012-10-03 18:28:00
12:34 PM,33.8,30.2,87,30.12,1.8,NW,12.7,-,0.01,Snow,Light Snow,320,2012-10-03 18:34:00
12:43 PM,33.8,30.2,87,30.12,0.8,NW,16.1,24.2,0.01,Snow,Light Snow,320,2012-10-03 18:43:00
12:51 PM,33.1,30.0,89,30.16,0.8,NW,18.4,23.0,0.01,Snow,Light Snow,320,2012-10-03 18:51:00
1:34 PM,33.8,30.2,87,30.13,1.0,NW,11.5,-,0.04,Snow,Light Snow,310,2012-10-03 19:34:00
1:46 PM,33.8,30.2,87,30.13,2.0,NW,15.0,-,0.04,Snow,Light Snow,320,2012-10-03 19:46:00
1:51 PM,33.1,30.0,89,30.18,2.0,NW,12.7,-,0.04,Snow,Light Snow,320,2012-10-03 19:51:00
1:57 PM,33.8,30.2,87,30.14,3.0,NW,15.0,-,0.01,Snow,Light Snow,320,2012-10-03 19:57:00
2:51 PM,34.0,30.9,89,30.21,2.5,NW,13.8,-,0.01,Snow,Light Snow,310,2012-10-03 20:51:00
2:59 PM,33.8,30.2,87,30.17,4.0,NW,12.7,-,0.00,Snow,Light Snow,310,2012-10-03 20:59:00
3:51 PM,34.0,30.9,89,30.25,9.0,NW,12.7,-,0.01,Snow,Light Snow,320,2012-10-03 21:51:00
4:51 PM,36.0,33.1,89,30.27,10.0,NNW,16.1,25.3,0.02,Rain,Light Rain,330,2012-10-03 22:51:00
5:51 PM,37.0,33.1,86,30.31,10.0,NNW,15.0,-,0.01,Rain,Light Rain,340,2012-10-03 23:51:00
6:51 PM,36.0,33.1,89,30.34,10.0,NNW,15.0,25.3,0.02,Rain,Light Rain,340,2012-10-04 00:51:00
7:51 PM,35.1,32.0,89,30.37,10.0,NNW,19.6,23.0,0.02,Rain,Light Rain,330,2012-10-04 01:51:00
8:51 PM,35.1,32.0,89,30.40,10.0,NNW,16.1,24.2,0.00,,Overcast,330,2012-10-04 02:51:00
9:51 PM,35.1,32.0,89,30.41,10.0,NNW,13.8,20.7,0.00,,Overcast,340,2012-10-04 03:51:00
10:51 PM,35.1,30.9,85,30.43,10.0,NNW,13.8,23.0,0.00,,Overcast,330,2012-10-04 04:51:00
11:20 PM,33.8,30.2,87,30.36,10.0,NNW,16.1,-,N/A,,Overcast,340,2012-10-04 05:20:00
11:51 PM,35.1,30.9,85,30.45,10.0,North,12.7,21.9,N/A,,Overcast,350,2012-10-04 05:51:00